| time (UTC) | temp C | wind direction | speed KPH | gust KPH | rain 1hr cm | rain 24hr cm | rain mn cm | humidity % | barometer mb |
| 20260904173005 | 19 | 181 | 3.2 | 0.0 | 0.00 | 0.00 | 0.03 | 82 | 1012.6 |
| 20260904172505 | 19 | 178 | 3.2 | 0.0 | 0.00 | 0.00 | 0.03 | 82 | 1012.5 |
| 20260904172005 | 19 | 218 | 3.2 | 0.0 | 0.00 | 0.00 | 0.03 | 85 | 1012.5 |
| 20260904171502 | 19 | 217 | 1.6 | 0.0 | 0.00 | 0.00 | 0.03 | 86 | 1012.5 |
| 20260904171002 | 18 | 134 | 1.6 | 0.0 | 0.00 | 0.00 | 0.03 | 86 | 1012.5 |
| 20260904170502 | 18 | 153 | 3.2 | 0.0 | 0.00 | 0.00 | 0.03 | 86 | 1012.5 |
| 20260904170001 | 18 | 117 | 3.2 | 0.0 | 0.00 | 0.00 | 0.03 | 85 | 1012.5 |
| 20260904165600 | 18 | 125 | 3.2 | 0.0 | 0.00 | 0.00 | 0.03 | 87 | 1012.2 |
| 20260904165100 | 18 | 175 | 3.2 | 0.0 | 0.00 | 0.00 | 0.03 | 87 | 1012.2 |
| 20260904164604 | 18 | 195 | 3.2 | 0.0 | 0.00 | 0.00 | 0.03 | 87 | 1012.2 |
| 20260904164057 | 18 | 84 | 3.2 | 0.0 | 0.00 | 0.00 | 0.03 | 86 | 1012.1 |
| 20260904163557 | 18 | 188 | 3.2 | 0.0 | 0.00 | 0.00 | 0.03 | 87 | 1012.1 |
| 20260904163106 | 18 | 70 | 1.6 | 0.0 | 0.00 | 0.00 | 0.03 | 88 | 1012.1 |
| 20260904162556 | 18 | 33 | 1.6 | 0.0 | 0.00 | 0.00 | 0.03 | 88 | 1012.1 |
| 20260904162055 | 18 | 111 | 3.2 | 0.0 | 0.00 | 0.00 | 0.03 | 87 | 1012.1 |
| 20260904161555 | 18 | 134 | 4.8 | 0.0 | 0.00 | 0.00 | 0.03 | 88 | 1012.1 |
| 20260904161055 | 18 | 69 | 3.2 | 0.0 | 0.00 | 0.00 | 0.03 | 89 | 1011.8 |
| 20260904160553 | 17 | 109 | 3.2 | 0.0 | 0.00 | 0.00 | 0.03 | 90 | 1011.8 |
| 20260904160104 | 17 | 94 | 3.2 | 0.0 | 0.00 | 0.00 | 0.03 | 92 | 1011.8 |
| 20260904155551 | 17 | 101 | 1.6 | 0.0 | 0.00 | 0.00 | 0.03 | 93 | 1011.8 |
| 20260904155051 | 17 | 87 | 1.6 | 0.0 | 0.00 | 0.00 | 0.03 | 94 | 1011.8 |
| 20260904154549 | 17 | 144 | 0.0 | 0.0 | 0.00 | 0.00 | 0.03 | 96 | 1011.8 |
| 20260904154048 | 16 | 88 | 0.0 | 0.0 | 0.00 | 0.00 | 0.03 | 96 | 1011.9 |
| 20260904153547 | 16 | 107 | 1.6 | 0.0 | 0.00 | 0.00 | 0.03 | 96 | 1011.9 |
| 20260904153101 | 16 | 148 | 3.2 | 0.0 | 0.00 | 0.00 | 0.03 | 95 | 1011.9 |
| 20260904152547 | 16 | 142 | 1.6 | 0.0 | 0.00 | 0.00 | 0.03 | 95 | 1011.8 |
| 20260904152046 | 16 | 104 | 0.0 | 0.0 | 0.00 | 0.00 | 0.03 | 95 | 1011.8 |
| 20260904151546 | 16 | 115 | 0.0 | 0.0 | 0.00 | 0.00 | 0.03 | 96 | 1011.8 |
| 20260904151046 | 16 | 136 | 0.0 | 0.0 | 0.00 | 0.00 | 0.03 | 96 | 1011.8 |
| 20260904150550 | 16 | 112 | 0.0 | 0.0 | 0.00 | 0.00 | 0.03 | 96 | 1011.8 |
| 20260904150100 | 16 | 83 | 0.0 | 0.0 | 0.00 | 0.00 | 0.03 | 96 | 1011.8 |
| 20260904145546 | 16 | 85 | 0.0 | 0.0 | 0.00 | 0.00 | 0.03 | 96 | 1011.7 |
| 20260904145048 | 16 | 62 | 0.0 | 0.0 | 0.00 | 0.00 | 0.03 | 96 | 1011.7 |
| 20260904144547 | 16 | 80 | 0.0 | 0.0 | 0.00 | 0.00 | 0.03 | 96 | 1011.7 |
| 20260904144044 | 16 | 153 | 0.0 | 0.0 | 0.00 | 0.00 | 0.03 | 96 | 1011.4 |
| 20260904143544 | 16 | 153 | 0.0 | 0.0 | 0.00 | 0.00 | 0.03 | 97 | 1011.4 |
| 20260904143043 | 16 | 153 | 0.0 | 0.0 | 0.00 | 0.00 | 0.03 | 97 | 1011.4 |
| 20260904142542 | 16 | 153 | 0.0 | 0.0 | 0.00 | 0.00 | 0.03 | 97 | 1011.2 |
| 20260904142041 | 16 | 153 | 0.0 | 0.0 | 0.00 | 0.00 | 0.03 | 97 | 1011.2 |
| 20260904141540 | 16 | 207 | 0.0 | 0.0 | 0.00 | 0.00 | 0.03 | 97 | 1011.2 |
| 20260904141039 | 16 | 207 | 0.0 | 0.0 | 0.00 | 0.00 | 0.03 | 97 | 1011.2 |
| 20260904140542 | 15 | 207 | 0.0 | 0.0 | 0.00 | 0.00 | 0.03 | 97 | 1011.2 |
| 20260904140038 | 15 | 207 | 0.0 | 0.0 | 0.00 | 0.00 | 0.03 | 96 | 1011.2 |
| 20260904135539 | 15 | 207 | 0.0 | 0.0 | 0.00 | 0.00 | 0.03 | 96 | 1011.1 |
| 20260904135038 | 15 | 207 | 0.0 | 0.0 | 0.00 | 0.00 | 0.03 | 96 | 1011.1 |
| 20260904134546 | 15 | 207 | 0.0 | 0.0 | 0.00 | 0.00 | 0.03 | 97 | 1011.1 |
| 20260904134037 | 15 | 207 | 0.0 | 0.0 | 0.00 | 0.00 | 0.00 | 96 | 1011.0 |
| 20260904133537 | 15 | 207 | 0.0 | 0.0 | 0.00 | 0.00 | 0.00 | 97 | 1011.0 |
| 20260904133037 | 15 | 207 | 0.0 | 0.0 | 0.00 | 0.00 | 0.00 | 97 | 1011.0 |
| 20260904132537 | 15 | 207 | 0.0 | 0.0 | 0.00 | 0.00 | 0.00 | 97 | 1011.0 |
| 20260904132039 | 15 | 207 | 0.0 | 0.0 | 0.00 | 0.00 | 0.00 | 97 | 1011.0 |
| 20260904131535 | 15 | 207 | 0.0 | 0.0 | 0.00 | 0.00 | 0.00 | 97 | 1011.0 |
| 20260904131036 | 15 | 207 | 0.0 | 0.0 | 0.00 | 0.00 | 0.00 | 97 | 1010.8 |
| 20260904130538 | 15 | 207 | 0.0 | 0.0 | 0.00 | 0.00 | 0.00 | 97 | 1010.8 |
| 20260904130051 | 15 | 207 | 0.0 | 0.0 | 0.00 | 0.00 | 0.00 | 96 | 1010.8 |
| 20260904125535 | 15 | 207 | 0.0 | 0.0 | 0.00 | 0.00 | 0.00 | 97 | 1010.6 |
| 20260904125036 | 15 | 207 | 0.0 | 0.0 | 0.00 | 0.00 | 0.00 | 97 | 1010.6 |
| 20260904124538 | 15 | 207 | 0.0 | 0.0 | 0.00 | 0.00 | 0.00 | 97 | 1010.6 |
| 20260904124040 | 15 | 207 | 0.0 | 0.0 | 0.00 | 0.00 | 0.00 | 97 | 1010.6 |
| 20260904123536 | 15 | 270 | 0.0 | 0.0 | 0.00 | 0.00 | 0.00 | 96 | 1010.6 |
| 20260904123033 | 15 | 270 | 0.0 | 0.0 | 0.00 | 0.00 | 0.00 | 96 | 1010.6 |
| 20260904122533 | 15 | 270 | 0.0 | 0.0 | 0.00 | 0.00 | 0.00 | 96 | 1010.6 |
| 20260904122033 | 15 | 270 | 0.0 | 0.0 | 0.00 | 0.00 | 0.00 | 96 | 1010.6 |
| 20260904121535 | 15 | 270 | 0.0 | 0.0 | 0.00 | 0.00 | 0.00 | 96 | 1010.6 |
| 20260904121036 | 15 | 270 | 0.0 | 0.0 | 0.00 | 0.00 | 0.00 | 96 | 1010.5 |
| 20260904120532 | 15 | 270 | 0.0 | 0.0 | 0.00 | 0.00 | 0.00 | 96 | 1010.5 |
| 20260904120037 | 15 | 270 | 0.0 | 0.0 | 0.00 | 0.00 | 0.00 | 96 | 1010.5 |
| 20260904115532 | 15 | 270 | 0.0 | 0.0 | 0.00 | 0.00 | 0.00 | 96 | 1010.5 |
| 20260904115032 | 15 | 270 | 0.0 | 0.0 | 0.00 | 0.00 | 0.00 | 96 | 1010.5 |
| 20260904114532 | 15 | 270 | 0.0 | 0.0 | 0.00 | 0.00 | 0.00 | 96 | 1010.5 |
| 20260904114031 | 15 | 270 | 0.0 | 0.0 | 0.00 | 0.00 | 0.00 | 96 | 1010.5 |
| 20260904113531 | 15 | 270 | 0.0 | 0.0 | 0.00 | 0.00 | 0.00 | 96 | 1010.5 |
| 20260904113034 | 15 | 270 | 0.0 | 0.0 | 0.00 | 0.00 | 0.00 | 96 | 1010.5 |
| 20260904112531 | 15 | 270 | 0.0 | 0.0 | 0.00 | 0.00 | 0.00 | 96 | 1010.5 |
| 20260904112029 | 15 | 270 | 0.0 | 0.0 | 0.00 | 0.00 | 0.00 | 96 | 1010.5 |
| 20260904111529 | 15 | 270 | 0.0 | 0.0 | 0.00 | 0.00 | 0.00 | 96 | 1010.5 |
| 20260904111032 | 15 | 270 | 0.0 | 0.0 | 0.00 | 0.00 | 0.00 | 96 | 1010.5 |
| 20260904110530 | 15 | 270 | 0.0 | 0.0 | 0.00 | 0.00 | 0.00 | 96 | 1010.5 |
| 20260904110029 | 15 | 270 | 0.0 | 0.0 | 0.00 | 0.00 | 0.00 | 96 | 1010.5 |
| 20260904105529 | 15 | 270 | 0.0 | 0.0 | 0.00 | 0.00 | 0.00 | 96 | 1010.6 |
| 20260904105029 | 15 | 270 | 0.0 | 0.0 | 0.00 | 0.00 | 0.00 | 96 | 1010.6 |
| 20260904104530 | 15 | 270 | 0.0 | 0.0 | 0.00 | 0.00 | 0.00 | 96 | 1010.6 |
| 20260904104028 | 14 | 270 | 0.0 | 0.0 | 0.00 | 0.00 | 0.00 | 96 | 1010.5 |
| 20260904103527 | 14 | 270 | 0.0 | 0.0 | 0.00 | 0.00 | 0.00 | 95 | 1010.5 |
| 20260904103028 | 14 | 270 | 0.0 | 0.0 | 0.00 | 0.00 | 0.00 | 96 | 1010.5 |
| 20260904102529 | 14 | 270 | 0.0 | 0.0 | 0.00 | 0.00 | 0.00 | 96 | 1010.5 |
| 20260904102028 | 14 | 270 | 0.0 | 0.0 | 0.00 | 0.00 | 0.00 | 95 | 1010.5 |
| 20260904101530 | 14 | 270 | 0.0 | 0.0 | 0.00 | 0.00 | 0.00 | 95 | 1010.5 |
| 20260904101028 | 14 | 270 | 0.0 | 0.0 | 0.00 | 0.00 | 0.00 | 95 | 1010.5 |
| 20260904100530 | 14 | 270 | 0.0 | 0.0 | 0.00 | 0.00 | 0.00 | 95 | 1010.5 |
| 20260904100030 | 14 | 270 | 0.0 | 0.0 | 0.00 | 0.00 | 0.00 | 95 | 1010.5 |
| 20260904095531 | 14 | 270 | 0.0 | 0.0 | 0.00 | 0.00 | 0.00 | 95 | 1010.5 |
| 20260904095026 | 14 | 270 | 0.0 | 0.0 | 0.00 | 0.00 | 0.00 | 95 | 1010.5 |
| 20260904094525 | 15 | 270 | 0.0 | 0.0 | 0.00 | 0.00 | 0.00 | 95 | 1010.5 |
| 20260904094025 | 15 | 270 | 0.0 | 0.0 | 0.00 | 0.00 | 0.00 | 95 | 1010.6 |
| 20260904093525 | 15 | 270 | 0.0 | 0.0 | 0.00 | 0.00 | 0.00 | 95 | 1010.6 |
| 20260904093026 | 15 | 270 | 0.0 | 0.0 | 0.00 | 0.00 | 0.00 | 95 | 1010.6 |
| 20260904092524 | 15 | 270 | 0.0 | 0.0 | 0.00 | 0.00 | 0.00 | 95 | 1010.6 |
| 20260904092026 | 15 | 270 | 0.0 | 0.0 | 0.00 | 0.00 | 0.00 | 95 | 1010.6 |
| 20260904091525 | 14 | 270 | 0.0 | 0.0 | 0.00 | 0.00 | 0.00 | 95 | 1010.6 |
| 20260904091025 | 14 | 270 | 0.0 | 0.0 | 0.00 | 0.00 | 0.00 | 95 | 1010.6 |
| 20260904090524 | 15 | 270 | 0.0 | 0.0 | 0.00 | 0.00 | 0.00 | 95 | 1010.6 |
| 20260904090031 | 15 | 270 | 0.0 | 0.0 | 0.00 | 0.00 | 0.00 | 94 | 1010.6 |
| 20260904085524 | 15 | 270 | 0.0 | 0.0 | 0.00 | 0.00 | 0.00 | 94 | 1010.5 |
| 20260904085025 | 15 | 270 | 0.0 | 0.0 | 0.00 | 0.00 | 0.00 | 95 | 1010.5 |
| 20260904084523 | 15 | 270 | 0.0 | 0.0 | 0.00 | 0.00 | 0.00 | 95 | 1010.5 |
| 20260904084022 | 15 | 270 | 0.0 | 0.0 | 0.00 | 0.00 | 0.00 | 95 | 1010.6 |
| 20260904083522 | 15 | 270 | 0.0 | 0.0 | 0.00 | 0.00 | 0.00 | 94 | 1010.6 |
| 20260904083029 | 15 | 270 | 0.0 | 0.0 | 0.00 | 0.00 | 0.00 | 95 | 1010.6 |
| 20260904082523 | 15 | 270 | 0.0 | 0.0 | 0.00 | 0.00 | 0.00 | 95 | 1010.6 |
| 20260904082021 | 15 | 270 | 0.0 | 0.0 | 0.00 | 0.00 | 0.00 | 95 | 1010.6 |
| 20260904081521 | 15 | 270 | 0.0 | 0.0 | 0.00 | 0.00 | 0.00 | 95 | 1010.6 |
| 20260904081021 | 15 | 270 | 0.0 | 0.0 | 0.00 | 0.00 | 0.00 | 95 | 1010.7 |
| 20260904080521 | 15 | 270 | 0.0 | 0.0 | 0.00 | 0.00 | 0.00 | 95 | 1010.7 |
| 20260904080021 | 15 | 270 | 0.0 | 0.0 | 0.00 | 0.00 | 0.00 | 95 | 1010.7 |
| 20260904075520 | 15 | 270 | 0.0 | 0.0 | 0.00 | 0.00 | 0.00 | 95 | 1010.7 |
| 20260904075019 | 15 | 270 | 0.0 | 0.0 | 0.00 | 0.00 | 0.00 | 95 | 1010.7 |
| 20260904074518 | 15 | 270 | 0.0 | 0.0 | 0.00 | 0.00 | 0.00 | 94 | 1010.7 |
| 20260904074018 | 15 | 270 | 0.0 | 0.0 | 0.00 | 0.00 | 0.00 | 94 | 1010.7 |
| 20260904073519 | 15 | 270 | 0.0 | 0.0 | 0.00 | 0.00 | 0.00 | 94 | 1010.7 |
| 20260904073018 | 15 | 270 | 0.0 | 0.0 | 0.00 | 0.00 | 0.00 | 94 | 1010.7 |
| 20260904072517 | 15 | 270 | 0.0 | 0.0 | 0.00 | 0.00 | 0.00 | 94 | 1010.8 |
| 20260904072016 | 15 | 270 | 0.0 | 0.0 | 0.00 | 0.00 | 0.00 | 94 | 1010.8 |
| 20260904071520 | 15 | 270 | 0.0 | 0.0 | 0.00 | 0.00 | 0.00 | 94 | 1010.8 |
| 20260904071018 | 15 | 270 | 0.0 | 0.0 | 0.00 | 0.00 | 0.00 | 93 | 1010.6 |
| 20260904070514 | 15 | 270 | 0.0 | 0.0 | 0.00 | 0.00 | 0.00 | 93 | 1010.6 |
| 20260904070018 | 15 | 270 | 0.0 | 0.0 | 0.00 | 0.00 | 0.03 | 93 | 1010.6 |
| 20260904065514 | 15 | 270 | 0.0 | 0.0 | 0.00 | 0.00 | 0.03 | 93 | 1010.6 |
| 20260904065014 | 15 | 270 | 0.0 | 0.0 | 0.00 | 0.00 | 0.03 | 93 | 1010.6 |
| 20260904064514 | 15 | 270 | 0.0 | 0.0 | 0.00 | 0.00 | 0.03 | 93 | 1010.6 |
| 20260904064013 | 15 | 270 | 0.0 | 0.0 | 0.00 | 0.00 | 0.03 | 93 | 1010.6 |
| 20260904063512 | 15 | 270 | 0.0 | 0.0 | 0.00 | 0.00 | 0.03 | 93 | 1010.6 |
| 20260904063012 | 15 | 270 | 0.0 | 0.0 | 0.00 | 0.00 | 0.03 | 93 | 1010.6 |
| 20260904062511 | 15 | 270 | 0.0 | 0.0 | 0.00 | 0.00 | 0.03 | 93 | 1010.4 |
| 20260904062015 | 15 | 270 | 0.0 | 0.0 | 0.00 | 0.00 | 0.03 | 93 | 1010.4 |
| 20260904061524 | 15 | 270 | 0.0 | 0.0 | 0.00 | 0.00 | 0.03 | 93 | 1010.4 |
| 20260904061011 | 15 | 270 | 0.0 | 0.0 | 0.00 | 0.00 | 0.03 | 94 | 1010.5 |
| 20260904060510 | 15 | 270 | 0.0 | 0.0 | 0.00 | 0.00 | 0.03 | 94 | 1010.5 |
| 20260904060010 | 16 | 270 | 0.0 | 0.0 | 0.00 | 0.00 | 0.03 | 95 | 1010.5 |
| 20260904055509 | 16 | 270 | 0.0 | 0.0 | 0.00 | 0.00 | 0.03 | 95 | 1010.5 |
| 20260904055009 | 16 | 270 | 0.0 | 0.0 | 0.00 | 0.00 | 0.03 | 94 | 1010.5 |
| 20260904054518 | 16 | 270 | 0.0 | 0.0 | 0.00 | 0.00 | 0.03 | 94 | 1010.5 |
| 20260904054008 | 16 | 270 | 0.0 | 0.0 | 0.00 | 0.00 | 0.03 | 94 | 1010.4 |
| 20260904053508 | 16 | 270 | 0.0 | 0.0 | 0.00 | 0.00 | 0.03 | 94 | 1010.4 |
| 20260904053008 | 16 | 270 | 0.0 | 0.0 | 0.00 | 0.00 | 0.03 | 94 | 1010.4 |
| 20260904052508 | 16 | 270 | 1.6 | 0.0 | 0.00 | 0.00 | 0.03 | 94 | 1010.4 |
| 20260904052009 | 16 | 270 | 1.6 | 0.0 | 0.00 | 0.00 | 0.03 | 94 | 1010.4 |
| 20260904051508 | 16 | 237 | 1.6 | 0.0 | 0.00 | 0.00 | 0.03 | 94 | 1010.4 |
| 20260904051010 | 16 | 237 | 1.6 | 0.0 | 0.00 | 0.00 | 0.03 | 94 | 1010.7 |
| 20260904050507 | 16 | 251 | 0.0 | 0.0 | 0.00 | 0.00 | 0.03 | 94 | 1010.7 |
| 20260904050010 | 16 | 251 | 0.0 | 0.0 | 0.00 | 0.00 | 0.03 | 94 | 1010.7 |
| 20260904045507 | 16 | 251 | 1.6 | 0.0 | 0.00 | 0.00 | 0.03 | 94 | 1010.6 |
| 20260904045011 | 16 | 144 | 1.6 | 0.0 | 0.00 | 0.00 | 0.03 | 94 | 1010.6 |
| 20260904044508 | 16 | 211 | 1.6 | 0.0 | 0.00 | 0.00 | 0.03 | 94 | 1010.6 |
| 20260904044008 | 16 | 200 | 1.6 | 0.0 | 0.00 | 0.00 | 0.03 | 94 | 1010.5 |
| 20260904043506 | 16 | 217 | 1.6 | 0.0 | 0.00 | 0.00 | 0.03 | 94 | 1010.5 |
| 20260904043006 | 16 | 213 | 1.6 | 0.0 | 0.00 | 0.00 | 0.03 | 94 | 1010.5 |
| 20260904042506 | 16 | 229 | 1.6 | 0.0 | 0.00 | 0.00 | 0.03 | 93 | 1010.5 |
| 20260904042007 | 16 | 284 | 1.6 | 0.0 | 0.00 | 0.00 | 0.03 | 93 | 1010.5 |
| 20260904041506 | 16 | 221 | 3.2 | 0.0 | 0.00 | 0.00 | 0.03 | 93 | 1010.5 |
| 20260904041007 | 16 | 284 | 3.2 | 0.0 | 0.00 | 0.00 | 0.03 | 93 | 1010.6 |
| 20260904040507 | 16 | 276 | 3.2 | 0.0 | 0.00 | 0.00 | 0.03 | 93 | 1010.6 |
| 20260904040007 | 16 | 281 | 3.2 | 0.0 | 0.00 | 0.00 | 0.03 | 93 | 1010.6 |
| 20260904035506 | 16 | 325 | 3.2 | 0.0 | 0.00 | 0.00 | 0.03 | 93 | 1010.5 |
| 20260904035005 | 16 | 227 | 3.2 | 0.0 | 0.00 | 0.00 | 0.03 | 93 | 1010.5 |
| 20260904034505 | 16 | 275 | 3.2 | 0.0 | 0.00 | 0.00 | 0.03 | 93 | 1010.5 |
| 20260904034005 | 16 | 263 | 4.8 | 0.0 | 0.00 | 0.00 | 0.03 | 93 | 1010.2 |
| 20260904033505 | 16 | 267 | 3.2 | 0.0 | 0.00 | 0.00 | 0.03 | 93 | 1010.2 |
| 20260904033005 | 16 | 284 | 1.6 | 0.0 | 0.00 | 0.00 | 0.03 | 93 | 1010.2 |
| 20260904032504 | 16 | 166 | 1.6 | 0.0 | 0.00 | 0.00 | 0.03 | 93 | 1010.1 |
| 20260904032004 | 16 | 264 | 1.6 | 0.0 | 0.00 | 0.00 | 0.03 | 93 | 1010.1 |
| 20260904031504 | 16 | 275 | 1.6 | 0.0 | 0.00 | 0.00 | 0.03 | 93 | 1010.1 |
| 20260904031004 | 16 | 259 | 1.6 | 0.0 | 0.00 | 0.00 | 0.03 | 92 | 1010.1 |
| 20260904030504 | 16 | 202 | 3.2 | 0.0 | 0.00 | 0.00 | 0.03 | 92 | 1010.1 |
| 20260904030012 | 17 | 216 | 3.2 | 0.0 | 0.00 | 0.00 | 0.03 | 92 | 1010.1 |
| 20260904025504 | 17 | 154 | 3.2 | 0.0 | 0.00 | 0.00 | 0.03 | 92 | 1010.0 |
| 20260904025004 | 17 | 200 | 1.6 | 0.0 | 0.00 | 0.00 | 0.03 | 92 | 1010.0 |
| 20260904024504 | 17 | 175 | 3.2 | 0.0 | 0.00 | 0.00 | 0.03 | 92 | 1010.0 |
| 20260904024004 | 17 | 185 | 3.2 | 0.0 | 0.00 | 0.00 | 0.03 | 91 | 1010.0 |
| 20260904023504 | 17 | 182 | 3.2 | 0.0 | 0.00 | 0.00 | 0.03 | 91 | 1010.0 |
| 20260904023003 | 17 | 196 | 3.2 | 0.0 | 0.00 | 0.00 | 0.03 | 91 | 1010.0 |
| 20260904022503 | 17 | 171 | 3.2 | 0.0 | 0.00 | 0.00 | 0.03 | 90 | 1010.0 |
| 20260904022004 | 17 | 180 | 3.2 | 0.0 | 0.00 | 0.00 | 0.03 | 90 | 1010.0 |
| 20260904021507 | 17 | 185 | 3.2 | 0.0 | 0.00 | 0.00 | 0.03 | 89 | 1010.0 |
| 20260904021003 | 17 | 161 | 3.2 | 0.0 | 0.00 | 0.00 | 0.03 | 88 | 1010.1 |
| 20260904020506 | 17 | 206 | 1.6 | 0.0 | 0.00 | 0.00 | 0.03 | 87 | 1010.1 |
| 20260904020003 | 17 | 360 | 3.2 | 0.0 | 0.00 | 0.00 | 0.03 | 87 | 1010.1 |
| 20260904015506 | 17 | 182 | 4.8 | 0.0 | 0.00 | 0.00 | 0.03 | 85 | 1010.2 |
| 20260904015002 | 17 | 215 | 3.2 | 0.0 | 0.00 | 0.00 | 0.03 | 85 | 1010.2 |
| 20260904014505 | 18 | 202 | 3.2 | 0.0 | 0.00 | 0.00 | 0.03 | 85 | 1010.2 |
| 20260904014002 | 18 | 197 | 3.2 | 0.0 | 0.00 | 0.00 | 0.03 | 85 | 1010.1 |
| 20260904013501 | 18 | 157 | 4.8 | 0.0 | 0.00 | 0.00 | 0.03 | 84 | 1010.1 |
| 20260904013002 | 18 | 212 | 4.8 | 0.0 | 0.00 | 0.00 | 0.03 | 83 | 1010.1 |
| 20260904012502 | 18 | 227 | 4.8 | 0.0 | 0.00 | 0.00 | 0.03 | 82 | 1010.1 |
| 20260904012002 | 18 | 202 | 4.8 | 0.0 | 0.00 | 0.00 | 0.03 | 82 | 1010.1 |
| 20260904011503 | 19 | 192 | 4.8 | 0.0 | 0.00 | 0.00 | 0.03 | 82 | 1010.1 |
| 20260904011001 | 19 | 163 | 4.8 | 0.0 | 0.00 | 0.00 | 0.03 | 81 | 1010.0 |
| 20260904010503 | 19 | 241 | 4.8 | 0.0 | 0.00 | 0.00 | 0.03 | 80 | 1010.0 |
| 20260904010001 | 20 | 200 | 4.8 | 0.0 | 0.00 | 0.00 | 0.03 | 80 | 1010.0 |
| 20260904005601 | 20 | 205 | 4.8 | 0.0 | 0.00 | 0.00 | 0.03 | 79 | 1010.1 |
| 20260904005100 | 20 | 205 | 4.8 | 0.0 | 0.00 | 0.00 | 0.03 | 78 | 1010.1 |
| 20260904004600 | 20 | 228 | 4.8 | 0.0 | 0.00 | 0.00 | 0.03 | 79 | 1010.1 |
| 20260904004100 | 20 | 360 | 4.8 | 0.0 | 0.00 | 0.00 | 0.03 | 77 | 1010.2 |
| 20260904003559 | 20 | 229 | 6.4 | 0.0 | 0.00 | 0.00 | 0.03 | 79 | 1010.2 |
| 20260904003059 | 20 | 223 | 6.4 | 0.0 | 0.00 | 0.00 | 0.03 | 78 | 1010.2 |
| 20260904002559 | 20 | 233 | 6.4 | 0.0 | 0.00 | 0.00 | 0.03 | 79 | 1010.3 |
| 20260904002059 | 20 | 360 | 8.0 | 0.0 | 0.00 | 0.00 | 0.03 | 79 | 1010.3 |
| 20260904001559 | 20 | 177 | 8.0 | 0.0 | 0.00 | 0.00 | 0.03 | 79 | 1010.3 |
| 20260904001058 | 20 | 203 | 6.4 | 0.0 | 0.00 | 0.00 | 0.03 | 79 | 1010.3 |
| 20260904000601 | 20 | 222 | 6.4 | 0.0 | 0.00 | 0.00 | 0.03 | 79 | 1010.3 |
| 20260904000058 | 20 | 185 | 4.8 | 0.0 | 0.00 | 0.00 | 0.03 | 79 | 1010.3 |
| 20260903235558 | 20 | 142 | 4.8 | 0.0 | 0.00 | 0.00 | 0.03 | 79 | 1010.4 |
| 20260903235057 | 20 | 199 | 6.4 | 0.0 | 0.00 | 0.00 | 0.03 | 79 | 1010.4 |
| 20260903234558 | 21 | 217 | 6.4 | 0.0 | 0.00 | 0.00 | 0.03 | 79 | 1010.4 |
| 20260903234057 | 21 | 216 | 6.4 | 0.0 | 0.00 | 0.00 | 0.03 | 79 | 1010.4 |
| 20260903233556 | 21 | 155 | 4.8 | 0.0 | 0.00 | 0.00 | 0.03 | 80 | 1010.4 |
| 20260903233056 | 20 | 217 | 4.8 | 0.0 | 0.00 | 0.00 | 0.03 | 81 | 1010.4 |
| 20260903232556 | 20 | 150 | 6.4 | 0.0 | 0.00 | 0.00 | 0.03 | 81 | 1010.5 |
| 20260903232056 | 20 | 180 | 8.0 | 0.0 | 0.00 | 0.00 | 0.03 | 81 | 1010.5 |
| 20260903231605 | 20 | 211 | 6.4 | 0.0 | 0.00 | 0.00 | 0.03 | 80 | 1010.5 |
| 20260903231055 | 20 | 177 | 6.4 | 0.0 | 0.00 | 0.00 | 0.03 | 82 | 1010.6 |
| 20260903230555 | 20 | 148 | 6.4 | 0.0 | 0.00 | 0.00 | 0.03 | 80 | 1010.6 |
| 20260903230056 | 20 | 209 | 6.4 | 0.0 | 0.00 | 0.00 | 0.03 | 79 | 1010.6 |
| 20260903225555 | 21 | 150 | 6.4 | 0.0 | 0.00 | 0.00 | 0.03 | 79 | 1010.7 |
| 20260903225054 | 21 | 360 | 6.4 | 0.0 | 0.00 | 0.00 | 0.03 | 78 | 1010.7 |
| 20260903224555 | 21 | 219 | 6.4 | 0.0 | 0.00 | 0.00 | 0.03 | 80 | 1010.7 |
| 20260903224053 | 21 | 360 | 6.4 | 0.0 | 0.00 | 0.00 | 0.03 | 78 | 1010.9 |
| 20260903223554 | 21 | 200 | 6.4 | 0.0 | 0.00 | 0.00 | 0.03 | 78 | 1010.9 |
| 20260903223057 | 21 | 134 | 6.4 | 0.0 | 0.00 | 0.00 | 0.03 | 79 | 1010.9 |
| 20260903222554 | 21 | 202 | 6.4 | 0.0 | 0.00 | 0.00 | 0.03 | 79 | 1011.1 |
| 20260903222053 | 21 | 225 | 6.4 | 0.0 | 0.00 | 0.00 | 0.03 | 80 | 1011.1 |
| 20260903221553 | 21 | 208 | 4.8 | 0.0 | 0.00 | 0.00 | 0.03 | 80 | 1011.1 |
| 20260903221052 | 21 | 129 | 4.8 | 0.0 | 0.00 | 0.00 | 0.03 | 81 | 1011.2 |
| 20260903220552 | 20 | 172 | 4.8 | 0.0 | 0.00 | 0.00 | 0.03 | 80 | 1011.2 |
| 20260903220112 | 20 | 179 | 6.4 | 0.0 | 0.00 | 0.00 | 0.03 | 80 | 1011.2 |
| 20260903215552 | 21 | 172 | 6.4 | 0.0 | 0.00 | 0.00 | 0.03 | 79 | 1011.2 |
| 20260903215050 | 21 | 148 | 4.8 | 0.0 | 0.00 | 0.00 | 0.03 | 79 | 1011.2 |
| 20260903214550 | 21 | 213 | 6.4 | 0.0 | 0.00 | 0.00 | 0.03 | 80 | 1011.2 |
| 20260903214050 | 21 | 190 | 6.4 | 0.0 | 0.00 | 0.00 | 0.03 | 79 | 1011.2 |
| 20260903213552 | 21 | 201 | 4.8 | 0.0 | 0.00 | 0.00 | 0.03 | 78 | 1011.2 |
| 20260903213050 | 21 | 238 | 6.4 | 0.0 | 0.00 | 0.00 | 0.03 | 79 | 1011.2 |
| 20260903212549 | 21 | 240 | 6.4 | 0.0 | 0.00 | 0.00 | 0.03 | 78 | 1011.3 |
| 20260903212050 | 21 | 205 | 4.8 | 0.0 | 0.00 | 0.00 | 0.03 | 79 | 1011.3 |
| 20260903211554 | 21 | 170 | 4.8 | 0.0 | 0.00 | 0.00 | 0.03 | 80 | 1011.3 |
| 20260903211049 | 21 | 229 | 4.8 | 0.0 | 0.00 | 0.00 | 0.03 | 82 | 1011.4 |
| 20260903210548 | 21 | 167 | 4.8 | 0.0 | 0.00 | 0.00 | 0.03 | 81 | 1011.4 |
| 20260903210048 | 21 | 269 | 4.8 | 0.0 | 0.00 | 0.00 | 0.03 | 81 | 1011.4 |
| 20260903205547 | 21 | 232 | 4.8 | 0.0 | 0.00 | 0.00 | 0.03 | 81 | 1011.5 |
| 20260903205051 | 21 | 214 | 6.4 | 0.0 | 0.00 | 0.00 | 0.03 | 82 | 1011.5 |
| 20260903204547 | 21 | 169 | 6.4 | 0.0 | 0.00 | 0.00 | 0.03 | 82 | 1011.5 |
| 20260903204045 | 20 | 159 | 4.8 | 0.0 | 0.00 | 0.00 | 0.03 | 81 | 1011.6 |
| 20260903203545 | 20 | 217 | 4.8 | 0.0 | 0.00 | 0.00 | 0.03 | 82 | 1011.6 |
| 20260903203045 | 20 | 209 | 6.4 | 0.0 | 0.00 | 0.00 | 0.03 | 81 | 1011.6 |
| 20260903202546 | 20 | 183 | 6.4 | 0.0 | 0.00 | 0.00 | 0.03 | 82 | 1011.7 |
| 20260903202045 | 20 | 132 | 6.4 | 0.0 | 0.00 | 0.00 | 0.03 | 82 | 1011.7 |
| 20260903201545 | 20 | 162 | 6.4 | 0.0 | 0.00 | 0.00 | 0.03 | 82 | 1011.7 |
| 20260903201044 | 20 | 217 | 6.4 | 0.0 | 0.00 | 0.00 | 0.03 | 81 | 1011.8 |
| 20260903200547 | 21 | 178 | 4.8 | 0.0 | 0.00 | 0.00 | 0.03 | 80 | 1011.8 |
| 20260903200045 | 21 | 178 | 4.8 | 0.0 | 0.00 | 0.00 | 0.03 | 81 | 1011.8 |
| 20260903195544 | 21 | 219 | 6.4 | 0.0 | 0.00 | 0.00 | 0.03 | 80 | 1011.9 |
| 20260903195044 | 21 | 146 | 6.4 | 0.0 | 0.00 | 0.00 | 0.03 | 80 | 1011.9 |
| 20260903194543 | 21 | 155 | 6.4 | 0.0 | 0.00 | 0.00 | 0.03 | 79 | 1011.9 |
| 20260903194046 | 21 | 190 | 6.4 | 0.0 | 0.00 | 0.00 | 0.03 | 80 | 1012.0 |
| 20260903193542 | 21 | 183 | 6.4 | 0.0 | 0.00 | 0.00 | 0.03 | 80 | 1012.0 |
| 20260903193042 | 21 | 213 | 6.4 | 0.0 | 0.00 | 0.00 | 0.03 | 79 | 1012.0 |
| 20260903192542 | 21 | 163 | 4.8 | 0.0 | 0.00 | 0.00 | 0.03 | 79 | 1012.2 |
| 20260903192044 | 21 | 168 | 6.4 | 0.0 | 0.00 | 0.00 | 0.03 | 79 | 1012.2 |
| 20260903191551 | 21 | 151 | 6.4 | 0.0 | 0.00 | 0.00 | 0.03 | 79 | 1012.2 |
| 20260903191041 | 21 | 168 | 4.8 | 0.0 | 0.00 | 0.00 | 0.03 | 78 | 1012.4 |
| 20260903190541 | 21 | 168 | 4.8 | 0.0 | 0.00 | 0.00 | 0.03 | 78 | 1012.4 |
| 20260903190041 | 21 | 181 | 4.8 | 0.0 | 0.00 | 0.00 | 0.03 | 78 | 1012.4 |
| 20260903185539 | 21 | 162 | 4.8 | 0.0 | 0.00 | 0.00 | 0.03 | 79 | 1012.5 |
| 20260903185039 | 21 | 196 | 4.8 | 0.0 | 0.00 | 0.00 | 0.03 | 78 | 1012.5 |
| 20260903184544 | 21 | 145 | 4.8 | 0.0 | 0.00 | 0.00 | 0.03 | 79 | 1012.5 |
| 20260903184037 | 21 | 167 | 4.8 | 0.0 | 0.00 | 0.00 | 0.03 | 79 | 1012.8 |
| 20260903183536 | 21 | 176 | 6.4 | 0.0 | 0.00 | 0.00 | 0.03 | 79 | 1012.8 |
| 20260903183037 | 21 | 251 | 6.4 | 0.0 | 0.00 | 0.00 | 0.03 | 78 | 1012.8 |
| 20260903182538 | 21 | 148 | 4.8 | 0.0 | 0.00 | 0.00 | 0.03 | 78 | 1013.0 |
| 20260903182037 | 21 | 166 | 6.4 | 0.0 | 0.00 | 0.00 | 0.03 | 79 | 1013.0 |
| 20260903181535 | 20 | 202 | 6.4 | 0.0 | 0.00 | 0.00 | 0.03 | 79 | 1013.0 |
| 20260903181034 | 20 | 150 | 4.8 | 0.0 | 0.00 | 0.00 | 0.03 | 78 | 1012.9 |
| 20260903180534 | 21 | 181 | 4.8 | 0.0 | 0.00 | 0.00 | 0.03 | 78 | 1012.9 |
| 20260903180044 | 20 | 191 | 3.2 | 0.0 | 0.00 | 0.00 | 0.03 | 81 | 1012.9 |
| 20260903175532 | 20 | 177 | 4.8 | 0.0 | 0.00 | 0.00 | 0.03 | 81 | 1012.8 |
| 20260903175030 | 20 | 173 | 3.2 | 0.0 | 0.00 | 0.00 | 0.03 | 83 | 1012.8 |
| 20260903174529 | 20 | 198 | 3.2 | 0.0 | 0.00 | 0.00 | 0.03 | 84 | 1012.8 |
| 20260903174029 | 20 | 200 | 3.2 | 0.0 | 0.00 | 0.00 | 0.03 | 84 | 1013.1 |
| 20260903173525 | 19 | 214 | 3.2 | 0.0 | 0.00 | 0.00 | 0.03 | 85 | 1013.1 |